Weather History for KYIP - September, 2013

Change the Weather History Date:

Friday, September 27, 2013

  Actual Average Record
Temperature  
Mean Temperature 62 °F -  
Max Temperature 78 °F 70 °F 88 °F (1999)
Min Temperature 46 °F 49 °F 36 °F (1980)
Degree Days  
Heating Degree Days 4    
Growing Degree Days 12 (Base 50)    
Moisture  
Dew Point 51 °F    
Average Humidity 75    
Maximum Humidity 94    
Minimum Humidity 43    
Precipitation  
Precipitation 0.01 in - - ()
Sea Level Pressure  
Sea Level Pressure 30.20 in    
Wind  
Wind Speed 3 mph (East)    
Max Wind Speed 10 mph    
Max Gust Speed 17 mph    
Visibility 8 miles    
Events Fog    
Averages and records for this station are not official NWS values.
T = Trace of Precipitation, MM = Missing Value Source: NWS Daily Summary

Daily Weather History Graph

Daily Weather History Graph

Search for Another Location

Airport or City:

Trip Planner

Search our weather history database for the weather conditions in past years. The results will help you decide how hot, cold, wet, or windy it might be!

Date:

Astronomy

Sep. 27, 2013 Rise Set
Actual Time 7:27 AM EDT 7:22 PM EDT
Civil Twilight 6:59 AM EDT 7:50 PM EDT
Nautical Twilight 6:26 AM EDT 8:22 PM EDT
Astronomical Twilight 5:53 AM EDT 8:55 PM EDT
Moon 12:15 AM EDT (9/27) 3:05 PM EDT (9/27)
Length of Visible Light 12h 50m
Length of Day
11h 55m
Last Quarter, 45% of the Moon is Illuminated
Sep 27
Last Quarter
Oct 4
New
Oct 11
First Quarter
Oct 18
Full
Oct 26
Last Quarter

Hourly Weather History & Observations

Time (EDT) Temp. Windchill Dew Point Humidity Pressure Visibility Wind Dir Wind Speed Gust Speed Precip Events Conditions
12:53 AM 50.0 °F - 45.0 °F 83% 30.15 in 9.0 mi Calm Calm - N/A   Clear
1:53 AM 51.1 °F - 46.0 °F 83% 30.16 in 10.0 mi Calm Calm - N/A   Clear
2:53 AM 50.0 °F - 45.0 °F 83% 30.16 in 10.0 mi Calm Calm - N/A   Clear
3:53 AM 51.1 °F - 46.0 °F 83% 30.17 in 10.0 mi North 3.5 mph - 0.01 in   Clear
4:53 AM 48.9 °F - 45.0 °F 86% 30.18 in 6.0 mi Calm Calm - N/A   Clear
5:44 AM 48.2 °F - 44.6 °F 87% 30.19 in 1.8 mi Calm Calm - N/A   Haze
5:53 AM 48.9 °F - 45.0 °F 86% 30.19 in 2.5 mi Calm Calm - N/A   Clear
6:00 AM 46.4 °F 45.2 °F 44.6 °F 93% 30.19 in 10.0 mi NE 3.5 mph - N/A   Clear
6:53 AM 50.0 °F - 46.0 °F 86% 30.20 in 10.0 mi Calm Calm - N/A   Clear
7:53 AM 50.0 °F - 46.0 °F 86% 30.22 in 5.0 mi Calm Calm - N/A   Clear
8:53 AM 57.0 °F - 52.0 °F 83% 30.23 in 10.0 mi Calm Calm - N/A   Clear
9:53 AM 64.9 °F - 55.9 °F 73% 30.25 in 10.0 mi Calm Calm - N/A   Clear
10:53 AM 70.0 °F - 57.9 °F 65% 30.24 in 10.0 mi East 6.9 mph - N/A   Clear
11:53 AM 73.0 °F - 57.0 °F 57% 30.24 in 10.0 mi East 9.2 mph - N/A   Clear
12:53 PM 75.0 °F - 53.1 °F 46% 30.23 in 10.0 mi East 8.1 mph - N/A   Clear
1:53 PM 77.0 °F - 55.9 °F 48% 30.22 in 10.0 mi East 8.1 mph - N/A   Partly Cloudy
2:53 PM 77.0 °F - 54.0 °F 45% 30.20 in 10.0 mi East 9.2 mph 17.3 mph N/A   Partly Cloudy
3:53 PM 77.0 °F - 53.1 °F 43% 30.19 in 10.0 mi East 6.9 mph - N/A   Clear
4:53 PM 75.9 °F - 52.0 °F 43% 30.18 in 10.0 mi East 10.4 mph - N/A   Partly Cloudy
5:53 PM 73.0 °F - 57.9 °F 59% 30.19 in 10.0 mi SSE 10.4 mph - N/A   Partly Cloudy
6:53 PM 68.0 °F - 55.0 °F 63% 30.20 in 10.0 mi SSE 10.4 mph - N/A   Clear
7:53 PM 62.1 °F - 54.0 °F 75% 30.19 in 10.0 mi SSE 6.9 mph - N/A   Clear
8:53 PM 61.0 °F - 54.0 °F 78% 30.19 in 10.0 mi SE 6.9 mph - N/A   Clear
9:53 PM 60.1 °F - 54.0 °F 80% 30.19 in 10.0 mi ESE 3.5 mph - N/A   Clear
10:53 PM 55.9 °F - 52.0 °F 87% 30.20 in 10.0 mi Calm Calm - N/A   Clear
11:26 PM 53.6 °F - 51.8 °F 94% 30.21 in 1.8 mi NE 3.5 mph - N/A   Clear
11:35 PM 53.6 °F - 50.0 °F 88% 30.20 in 3.0 mi Calm Calm - N/A   Clear
11:39 PM 53.6 °F - 50.0 °F 88% 30.20 in 1.2 mi Calm Calm - N/A   Clear
11:44 PM 51.8 °F - 48.2 °F 88% 30.20 in 0.2 mi Calm Calm - N/A Fog Fog
11:53 PM 53.1 °F - 50.0 °F 89% 30.19 in 0.5 mi Calm Calm - N/A Fog Fog